#timestamp,LO_Frequency,Hit,StdDev 
1507186815.1,286046996.6,N
1507186835.8,286046996.8,N
1507186855.7,286046995.0,Y
1507186875.5,286046998.6,P
1507186895.4,286047000.8,P
1507186915.2,286046998.5,N
1507186935.0,286046998.6,N
1507186935.9,286046998.6,N
1507186955.8,286047000.9,N
1507186975.6,286047000.1,N
1507186995.5,286047001.1,N
1507187015.3,286046998.5,N
1507187035.1,286046998.6,N
1507187055.9,286046998.7,N
1507187075.7,286047000.9,N
1507187095.5,286047001.0,N
1507187115.4,286046999.8,N
1507187135.2,286046999.7,N
1507187155.0,286047000.4,N
1507187156.0,286047000.4,N
1507187175.8,286047002.2,N
1507187195.6,286047002.6,N
1507187215.5,286047002.7,N
1507187235.3,286046999.9,N
1507187255.1,286047000.6,N
1507187275.9,286047000.9,N
1507187295.7,286046998.6,N
1507187315.6,286047011.9,Y
1507187335.4,286046999.4,P
1507187355.2,286046999.4,N
1507187375.1,286046998.2,P
1507187376.0,286046998.2,N
1507187395.8,286046998.6,N
1507187415.6,286046998.6,N
1507187435.5,286046998.5,N
1507187455.3,286047001.0,N
1507187475.2,286046999.7,N
1507187495.9,286047002.7,Y
1507187515.7,286047000.7,P
1507187535.6,286047001.0,N
1507187555.4,286047000.1,N
1507187575.3,286047002.6,Y
1507187595.1,286047001.9,P
1507187596.0,286047001.9,N
1507187615.8,286047004.4,P
1507187635.7,286047002.8,N
1507187655.5,286047002.1,N
1507187675.4,286047004.3,Y
1507187695.2,286046999.9,P
1507187715.0,286047000.8,N
1507187715.9,286047000.8,N
1507187735.8,286047000.3,N
1507187755.6,286047000.2,N
1507187775.5,286047001.0,N
1507187795.3,286047001.2,N
1507187815.1,286046998.2,N
1507187835.9,286046998.6,N
1507187855.7,286046999.0,N
1507187875.6,286046996.9,N
1507187895.4,286046999.6,N
1507187915.2,286046998.3,N
1507187935.1,286046999.3,N
1507187936.0,286046999.3,N
1507187955.8,286046998.1,N
1507187975.7,286047000.7,N
1507187995.5,286046998.2,N
1507188015.3,286047000.6,N
1507188035.2,286046998.4,N
1507188055.0,286046998.7,N
1507188055.9,286046998.7,N
1507188075.7,286046996.5,N
1507188095.6,286046999.5,N
1507188115.4,286046998.7,N
1507188135.3,286046999.1,N
1507188155.1,286046999.0,N
1507188175.8,286046996.5,N
1507188195.7,286046996.8,N
1507188215.5,286046996.5,N
1507188235.4,286046999.0,N
1507188255.2,286046998.4,N
1507188275.0,286046998.8,N
1507188275.9,286046998.8,N
1507188295.8,286047001.1,N
1507188315.6,286047000.9,N
1507188335.5,286046999.9,N
1507188355.3,286046999.7,N
1507188375.1,286046999.8,N
1507188395.9,286047002.8,N
1507188415.7,286047002.7,N
1507188435.6,286047000.1,N
1507188455.4,286047000.0,N
1507188475.2,286047002.1,N
1507188495.1,286047000.4,N
1507188496.0,286047000.4,N
1507188515.8,286047000.5,N
1507188535.6,286047002.8,N
1507188555.5,286046999.9,N
1507188575.3,286046999.8,N
1507188595.2,286047000.5,N
1507188615.9,286047000.6,N
1507188635.7,286047002.8,N
1507188655.6,286046999.8,N
1507188675.4,286046999.7,N
1507188695.3,286046999.8,N
1507188715.1,286047000.3,N
1507188716.0,286047000.3,N
1507188735.8,286047000.0,N
1507188755.7,286047000.7,N
1507188775.5,286047001.0,N
1507188795.4,286047000.8,N
1507188815.2,286047001.0,N
1507188835.0,286047000.0,N
1507188835.9,286047000.0,N
1507188855.8,286047000.7,N
1507188875.6,286047002.7,N
1507188895.5,286047000.0,N
1507188915.3,286047000.4,N
1507188935.1,286046999.8,N
1507188955.9,286047000.3,N
1507188975.7,286047000.8,N
1507188995.5,286047001.1,N
1507189015.4,286046999.4,N
1507189035.2,286046999.3,N
1507189055.1,286046998.2,N
1507189056.0,286046998.2,N
1507189075.8,286046998.6,N
1507189095.6,286047000.6,N
1507189115.5,286047000.5,N
1507189135.3,286046999.8,N
1507189155.2,286047001.4,N
1507189175.9,286047001.3,N
1507189195.7,286047001.3,N
1507189215.6,286047001.3,N
1507189235.4,286047002.2,N
1507189255.2,286047002.8,N
1507189275.1,286047000.8,N
1507189276.0,286047000.8,N
1507189295.8,286047001.1,N
1507189315.7,286047001.1,N
1507189335.5,286047000.8,N
1507189355.3,286046998.5,N
1507189375.2,286046998.7,N
1507189395.0,286046998.1,N
1507189395.9,286046998.1,N
1507189415.7,286047000.4,N
1507189435.6,286046998.7,N
1507189455.4,286046996.5,N
1507189475.3,286046999.6,N
1507189495.1,286046998.3,N
1507189496.0,286046998.3,N
1507189515.8,286047001.0,N
1507189535.7,286047002.0,N
1507189555.5,286046998.5,N
1507189575.3,286046996.9,N
1507189595.2,286046996.7,N
1507189615.0,286046997.4,N
1507189615.9,286046997.4,N
1507189635.8,286046997.2,N
1507189655.6,286046996.7,N
1507189675.4,286046997.2,N
1507189695.3,286046996.8,N
1507189715.1,286046997.4,N
1507189735.9,286046997.4,N
1507189755.7,286046996.6,N
1507189775.5,286046997.2,N
1507189795.4,286046997.5,N
1507189815.2,286046997.9,N
1507189835.0,286046997.3,N
1507189835.9,286046997.3,N
1507189855.8,286046999.6,N
1507189875.6,286046999.4,N
1507189895.5,286046998.5,N
1507189915.3,286046998.3,N
1507189935.1,286046998.3,N
1507189955.9,286047000.9,N
1507189975.9,286046998.7,N
1507189995.7,286046997.2,N
1507190015.5,286046997.7,N
1507190035.4,286046997.7,N
1507190055.2,286046996.8,N
1507190075.1,286046997.9,N
1507190076.0,286046997.9,N
1507190095.8,286046997.4,N
1507190115.6,286046998.4,N
1507190135.5,286047005.7,Y
1507190155.3,286047006.4,P
1507190175.1,286047014.0,P
1507190195.9,286047011.0,N
1507190215.7,286047010.8,N
1507190235.6,286047009.2,N
1507190255.4,286047007.6,N
1507190275.2,286047003.6,N
1507190295.1,286047003.9,N
1507190296.0,286047003.9,N
1507190315.8,286047004.1,N
1507190335.7,286047001.4,N
1507190355.5,286047002.4,N
1507190375.3,286047002.7,N
1507190395.2,286047000.6,N
